VK3GY-13 Weather Reports


Display with metric or nautical units.
time (UTC)temp
F
wind
direction
speed
MPH
gust
MPH
rain 1hr
in
rain 24hr
in
rain mn
in
humidity
%
barometer
mb
20201028223039 61 127 5.0 12.0 0.00 0.00 0.00 90 1013.4
20201028221530 59 101 6.0 9.0 0.00 0.00 0.00 93 1013.4
20201028220025 57 94 6.0 10.0 0.00 0.00 0.00 94 1013.4
20201028214521 56 100 7.0 12.0 0.00 0.00 0.00 95 1013.4
20201028213020 55 98 5.0 12.0 0.00 0.00 0.00 95 1013.3
20201028211510 53 114 7.0 12.0 0.00 0.00 0.00 95 1013.3
20201028210034 52 122 5.0 9.0 0.00 0.00 0.00 94 1013.4
20201028204520 52 118 5.0 8.0 0.00 0.00 0.00 95 1013.3
20201028203023 51 118 2.0 8.0 0.00 0.00 0.00 94 1013.3
20201028201531 49 95 2.0 3.0 0.00 0.00 0.00 94 1013.3
20201028200015 48 34 1.0 2.0 0.00 0.00 0.00 94 1013.4
20201028194520 48 82 1.0 2.0 0.00 0.00 0.00 93 1013.3
20201028193028 48 82 0.0 2.0 0.00 0.00 0.00 93 1013.3
20201028191529 49 82 0.0 1.0 0.00 0.00 0.00 93 1013.3
20201028190019 49 320 0.0 2.0 0.00 0.00 0.00 93 1013.3
20201028184513 50 98 1.0 2.0 0.00 0.00 0.00 93 1013.4
20201028183021 50 98 0.0 2.0 0.00 0.00 0.00 93 1013.4
20201028181518 51 98 0.0 1.0 0.00 0.00 0.00 93 1013.5
20201028180008 51 98 0.0 2.0 0.00 0.00 0.00 93 1013.6
20201028174519 52 98 1.0 3.0 0.00 0.00 0.00 93 1013.6
20201028173021 52 84 2.0 7.0 0.00 0.00 0.00 93 1013.7
20201028171519 52 108 3.0 6.0 0.00 0.00 0.00 93 1013.6
20201028170024 52 118 2.0 9.0 0.00 0.00 0.00 93 1013.6
20201028164512 52 108 5.0 8.0 0.00 0.00 0.00 93 1013.7
20201028163020 52 105 4.0 8.0 0.00 0.00 0.00 93 1014.1
20201028161518 52 111 3.0 9.0 0.00 0.00 0.00 93 1014.2
20201028160035 53 120 5.0 8.0 0.00 0.00 0.00 93 1014.3
20201028154515 53 120 3.0 9.0 0.00 0.00 0.00 93 1014.5
20201028153023 53 103 3.0 9.0 0.00 0.00 0.00 93 1014.6
20201028151518 53 116 4.0 8.0 0.00 0.00 0.00 93 1014.8
20201028150024 53 115 6.0 10.0 0.00 0.00 0.00 93 1015.1
20201028144528 53 124 2.0 9.0 0.00 0.00 0.00 92 1015.5
20201028143023 53 114 6.0 10.0 0.00 0.00 0.00 92 1015.4
20201028141525 53 107 6.0 12.0 0.00 0.00 0.00 92 1015.5
20201028140050 54 113 6.0 12.0 0.00 0.00 0.00 92 1015.9
20201028134516 54 104 6.0 12.0 0.00 0.00 0.00 92 1016.0
20201028133030 54 104 6.0 13.0 0.00 0.00 0.00 92 1016.0
20201028131517 54 122 6.0 14.0 0.00 0.00 0.00 92 1016.2
20201028130020 54 120 9.0 13.0 0.00 0.00 0.00 92 1016.4
20201028124521 55 122 6.0 12.0 0.00 0.00 0.00 91 1016.6
20201028123028 55 121 7.0 14.0 0.00 0.00 0.00 91 1016.7
20201028121521 55 123 7.0 15.0 0.00 0.00 0.00 91 1016.7
20201028120033 55 113 9.0 14.0 0.00 0.00 0.00 90 1016.8
20201028114519 55 108 6.0 14.0 0.00 0.00 0.00 90 1017.0
20201028113022 55 110 8.0 15.0 0.00 0.00 0.00 89 1017.2
20201028111523 55 111 7.0 14.0 0.00 0.00 0.00 89 1017.4
20201028110037 56 110 9.0 14.0 0.00 0.00 0.00 88 1017.3
20201028104521 56 107 9.0 14.0 0.00 0.00 0.00 87 1017.5
20201028103024 56 103 6.0 14.0 0.00 0.00 0.00 87 1017.5
20201028101520 57 100 8.0 17.0 0.00 0.00 0.00 86 1017.4
20201028100024 57 115 9.0 15.0 0.00 0.00 0.00 85 1017.4
20201028094522 58 114 10.0 15.0 0.00 0.00 0.00 84 1017.2
20201028093017 58 109 8.0 16.0 0.00 0.00 0.00 82 1017.1
20201028091514 59 113 9.0 21.0 0.00 0.00 0.00 80 1017.0
20201028090028 60 110 11.0 20.0 0.00 0.00 0.00 78 1016.9
20201028084509 61 111 12.0 20.0 0.00 0.00 0.00 76 1016.7
20201028083034 62 104 11.0 20.0 0.00 0.00 0.00 75 1016.6
20201028081509 63 115 9.0 20.0 0.00 0.00 0.00 73 1016.4
20201028080018 64 109 10.0 20.0 0.00 0.00 0.00 72 1016.2
20201028074517 65 119 7.0 21.0 0.00 0.00 0.00 71 1016.1
20201028073021 66 102 12.0 20.0 0.00 0.00 0.00 68 1016.0
20201028071521 67 111 11.0 17.0 0.00 0.01 0.00 67 1016.1
20201028070008 67 101 8.0 17.0 0.00 0.01 0.00 66 1016.1
20201028064518 68 112 6.0 20.0 0.00 0.01 0.00 65 1016.0
20201028063019 70 119 9.0 20.0 0.00 0.01 0.00 62 1016.1
20201028061512 71 121 11.0 20.0 0.00 0.01 0.00 60 1016.1
20201028060021 71 118 10.0 14.0 0.00 0.01 0.00 60 1016.1
20201028054509 71 98 8.0 17.0 0.00 0.01 0.00 60 1016.2
20201028053028 71 105 7.0 14.0 0.00 0.01 0.00 58 1016.3
20201028051525 73 119 9.0 17.0 0.00 0.01 0.00 56 1016.3
20201028050019 73 117 10.0 15.0 0.00 0.01 0.00 56 1016.4
20201028044519 73 123 9.0 21.0 0.00 0.02 0.00 56 1016.5
20201028043011 72 116 10.0 20.0 0.00 0.02 0.00 55 1016.5
20201028041516 72 125 10.0 18.0 0.00 0.02 0.00 56 1016.7
20201028040021 73 101 9.0 15.0 0.00 0.02 0.00 57 1017.1
20201028034523 72 124 7.0 17.0 0.00 0.02 0.00 58 1017.5
20201028033027 73 118 9.0 17.0 0.00 0.02 0.00 60 1017.7
20201028030028 71 96 13.0 18.0 0.00 0.02 0.00 58 1018.2
20201028024524 72 131 9.0 18.0 0.00 0.02 0.00 60 1018.2
20201028023029 71 130 10.0 18.0 0.00 0.02 0.00 62 1018.5
20201028021523 71 115 10.0 16.0 0.00 0.02 0.00 61 1018.8
20201028020050 70 123 10.0 16.0 0.00 0.02 0.00 63 1018.9
20201028014524 71 121 10.0 20.0 0.00 0.02 0.00 65 1019.1
20201028013029 69 124 11.0 20.0 0.00 0.02 0.00 66 1019.2
20201028011520 68 99 10.0 20.0 0.00 0.02 0.00 68 1019.6
20201028010023 68 114 9.0 18.0 0.00 0.02 0.00 69 1019.8
20201028004520 67 126 8.0 20.0 0.00 0.02 0.00 71 1020.0
20201028003020 65 112 12.0 21.0 0.00 0.02 0.00 72 1020.2
20201028001524 64 113 10.0 18.0 0.00 0.02 0.00 77 1020.4
20201028000028 62 100 13.0 20.0 0.00 0.02 0.00 81 1020.5
20201027234516 60 91 12.0 18.0 0.00 0.02 0.00 83 1020.7
20201027233055 59 119 10.0 18.0 0.00 0.02 0.00 83 1020.8
20201027231508 59 109 9.0 20.0 0.00 0.02 0.00 83 1020.8
20201027230037 58 111 12.0 20.0 0.00 0.02 0.00 85 1020.9
20201027224516 58 123 9.0 21.0 0.00 0.02 0.00 87 1021.1